No particular awareness of the weather is required.    There are no Weather-warnings


Meteo18 Weather Cam more information Meteo18 Weather Cam


Thunder radar more information blitzortung!


Rain radar more information rain snow radar


Visit our other weather sites:

Template documentation
and downloads

And another site



Weather Underground History page Text

Daily Summary for February 12, 2018 Units:  Metric    English   Both
« Previous Day
Next Day »
Daily Weekly Monthly Yearly Custom
  High: Low: Average:
Temperature: -17.8 °C -19 °C -17 °C
Dew Point: -17.8 °C -19.6 °C -18.6 °C
Humidity: Humidity % 59 % 82 %
Wind Speed: 0 km/h 0 km/h 4 km/h
Wind Gust: 0 km/h - -
Wind:- - West
Pressure: 0 hPa 34361.1 hPa -
Precipitation: 0 mm    
Historical Graphs
 
 
Tabular Data for February 12, 2018
Time Temperature Dew Point Pressure Wind Wind Speed Wind Gust Humidity Rainfall Rate (Hourly)
-17.8 °C -17.8 °C 0 hPa Calm     Humidity % 0 mm
00:05 -16.4 °C -17.5 °C 34361.1 hPa WNW 10.3 km/h 20.8 km/h 87 % 0 mm
00:11 -16.5 °C -17.6 °C 34361.1 hPa West 17.9 km/h 23.3 km/h 87 % 0 mm
00:17 -16.5 °C -17.6 °C 34361.1 hPa West 7.6 km/h 18.2 km/h 87 % 0 mm
00:23 -16.6 °C -17.6 °C 34371.3 hPa WNW 12.7 km/h 20.8 km/h 88 % 0 mm
00:29 -16.6 °C -17.6 °C 34371.3 hPa WSW 23 km/h 36.2 km/h 88 % 0 mm
00:35 -16.6 °C -17.6 °C 34371.3 hPa West 31.4 km/h 31.4 km/h 88 % 0 mm
00:41 -16.6 °C -17.6 °C 34371.3 hPa WNW 10.3 km/h 33.6 km/h 88 % 0 mm
00:47 -16.7 °C -17.7 °C 34371.3 hPa WNW 5.1 km/h 18.2 km/h 88 % 0 mm
00:53 -16.8 °C -17.8 °C 34371.3 hPa WNW 5.1 km/h 18.2 km/h 88 % 0 mm
00:59 -16.8 °C -17.8 °C 34384.8 hPa WNW 12.7 km/h 36.2 km/h 88 % 0 mm
01:05 -16.8 °C -17.8 °C 34384.8 hPa WNW 10.3 km/h 18.2 km/h 88 % 0 mm
01:11 -16.8 °C -17.8 °C 34384.8 hPa West 12.7 km/h 20.8 km/h 88 % 0 mm
01:17 -16.9 °C -17.8 °C 34384.8 hPa NW 26.2 km/h 26.2 km/h 89 % 0 mm
01:23 -16.9 °C -17.9 °C 34395 hPa West 12.7 km/h 20.8 km/h 88 % 0 mm
01:29 -16.9 °C -17.8 °C 34395 hPa WSW 7.6 km/h 28.5 km/h 89 % 0 mm
01:35 -17 °C -17.9 °C 34395 hPa WNW 20.9 km/h 20.9 km/h 89 % 0 mm
01:41 -17 °C -17.9 °C 34395 hPa West 20.9 km/h 20.9 km/h 89 % 0 mm
01:47 -17.1 °C -17.9 °C 34395 hPa West 17.9 km/h 18.2 km/h 90 % 0 mm
01:53 -17.1 °C -17.9 °C 34395 hPa West 10.3 km/h 23.3 km/h 90 % 0 mm
01:59 -17.1 °C -17.9 °C 34395 hPa WNW 2.3 km/h 23.3 km/h 90 % 0 mm
02:05 -17.1 °C -18 °C 34395 hPa WNW 2.3 km/h 12.9 km/h 89 % 0 mm
02:12 -17.1 °C -17.9 °C 34405.1 hPa West 5.1 km/h 12.9 km/h 90 % 0 mm
02:18 -17.2 °C -18 °C 34405.1 hPa WNW 12.7 km/h 18.2 km/h 90 % 0 mm
02:24 -17.2 °C -18.1 °C 34405.1 hPa WNW 5.1 km/h 12.9 km/h 90 % 0 mm
02:30 -17.2 °C -18.1 °C 34405.1 hPa WNW 2.3 km/h 7.7 km/h 90 % 0 mm
02:36 -17.3 °C -18 °C 34405.1 hPa WNW 7.6 km/h 23.3 km/h 91 % 0 mm
02:42 -17.3 °C -18 °C 34405.1 hPa WNW 7.6 km/h 15.6 km/h 91 % 0 mm
02:48 -17.3 °C -18 °C 34405.1 hPa NW 10.3 km/h 15.6 km/h 91 % 0 mm
02:54 -17.3 °C -18 °C 34405.1 hPa NW 2.3 km/h 18.2 km/h 91 % 0 mm
03:00 -17.3 °C -18.1 °C 34405.1 hPa NW 7.6 km/h 12.9 km/h 91 % 0 mm
03:06 -17.3 °C -18.1 °C 34418.7 hPa WNW 12.7 km/h 23.3 km/h 91 % 0 mm
03:12 -17.3 °C -18.1 °C 34418.7 hPa WNW 17.9 km/h 23.3 km/h 91 % 0 mm
03:18 -17.4 °C -18.1 °C 34418.7 hPa NW 15.6 km/h 20.8 km/h 91 % 0 mm
03:24 -17.4 °C -18.1 °C 34418.7 hPa West 15.6 km/h 18.2 km/h 91 % 0 mm
03:30 -17.4 °C -18.2 °C 34418.7 hPa WNW 7.6 km/h 10.3 km/h 91 % 0 mm
03:36 -17.4 °C -18.2 °C 34418.7 hPa West 2.3 km/h 15.6 km/h 91 % 0 mm
03:42 -17.4 °C -18.2 °C 34418.7 hPa WNW 5.1 km/h 12.9 km/h 91 % 0 mm
03:48 -17.5 °C -18.2 °C 34418.7 hPa WNW 2.3 km/h 10.3 km/h 91 % 0 mm
03:54 -17.6 °C -18.3 °C 34418.7 hPa WNW 2.3 km/h 15.6 km/h 91 % 0 mm
04:00 -17.6 °C -18.3 °C 34418.7 hPa NW 2.3 km/h 12.9 km/h 91 % 0 mm
04:06 -17.6 °C -18.2 °C 34418.7 hPa WNW 2.3 km/h 15.6 km/h 92 % 0 mm
04:12 -17.6 °C -18.2 °C 34428.8 hPa West 2.3 km/h 15.6 km/h 92 % 0 mm
04:18 -17.6 °C -18.3 °C 34418.7 hPa WNW 7.6 km/h 12.9 km/h 91 % 0 mm
04:24 -17.7 °C -18.3 °C 34428.8 hPa WNW 5.1 km/h 10.3 km/h 92 % 0 mm
04:30 -17.7 °C -18.3 °C 34428.8 hPa West 12.7 km/h 15.6 km/h 92 % 0 mm
04:36 -17.7 °C -18.3 °C 34428.8 hPa WNW 2.3 km/h 15.6 km/h 92 % 0 mm
04:42 -17.7 °C -18.3 °C 34428.8 hPa Calm   12.9 km/h 92 % 0 mm
04:48 -17.7 °C -18.3 °C 34428.8 hPa WNW 5.1 km/h 10.3 km/h 92 % 0 mm
04:54 -17.8 °C -18.4 °C 34428.8 hPa Calm   2.6 km/h 92 % 0 mm
05:00 -17.8 °C -18.4 °C 34428.8 hPa WNW 12.7 km/h 12.9 km/h 92 % 0 mm
05:06 -17.8 °C -18.4 °C 34428.8 hPa WNW 5.1 km/h 5.1 km/h 92 % 0 mm
05:12 -17.8 °C -18.4 °C 34442.4 hPa West 2.3 km/h 10.3 km/h 92 % 0 mm
05:18 -17.8 °C -18.4 °C 34442.4 hPa WNW 5.1 km/h 5.1 km/h 92 % 0 mm
05:24 -17.9 °C -18.5 °C 34442.4 hPa Calm   7.7 km/h 92 % 0 mm
05:30 -17.9 °C -18.5 °C 34452.6 hPa WNW 12.9 km/h 12.9 km/h 92 % 0 mm
05:36 -17.9 °C -18.5 °C 34452.6 hPa WNW 5.1 km/h 7.7 km/h 92 % 0 mm
05:42 -17.9 °C -18.5 °C 34452.6 hPa WNW 5.1 km/h 7.7 km/h 92 % 0 mm
05:48 -17.9 °C -18.5 °C 34452.6 hPa WNW 2.3 km/h 10.3 km/h 92 % 0 mm
05:54 -17.9 °C -18.5 °C 34452.6 hPa WNW 10.3 km/h 10.3 km/h 92 % 0 mm
06:00 -17.9 °C -18.6 °C 34452.6 hPa Calm   2.6 km/h 92 % 0 mm
06:06 -17.9 °C -18.6 °C 34452.6 hPa West 2.3 km/h 2.6 km/h 92 % 0 mm
06:12 -18 °C -18.6 °C 34452.6 hPa NW 2.3 km/h 10.3 km/h 92 % 0 mm
06:18 -18 °C -18.6 °C 34462.7 hPa Calm     92 % 0 mm
06:24 -18 °C -18.6 °C 34462.7 hPa Calm     92 % 0 mm
06:30 -18.1 °C -18.7 °C 34462.7 hPa Calm   2.6 km/h 92 % 0 mm
06:36 -18.1 °C -18.7 °C 34462.7 hPa Calm     92 % 0 mm
06:42 -18.1 °C -18.7 °C 34462.7 hPa Calm   10.3 km/h 92 % 0 mm
06:48 -18.1 °C -18.7 °C 34462.7 hPa Calm   2.6 km/h 92 % 0 mm
06:54 -18.1 °C -18.7 °C 34462.7 hPa WNW 2.3 km/h 2.6 km/h 92 % 0 mm
07:00 -18.1 °C -18.7 °C 34476.3 hPa Calm   2.6 km/h 92 % 0 mm
07:06 -18.1 °C -18.8 °C 34476.3 hPa Calm     91 % 0 mm
07:12 -18.2 °C -18.8 °C 34476.3 hPa Calm     92 % 0 mm
07:18 -18.2 °C -18.9 °C 34476.3 hPa Calm     91 % 0 mm
07:24 -18.2 °C -18.8 °C 34486.4 hPa WSW 2.3 km/h 5.1 km/h 92 % 0 mm
07:30 -18.2 °C -18.9 °C 34486.4 hPa Calm     91 % 0 mm
07:36 -18.3 °C -18.9 °C 34486.4 hPa Calm   2.6 km/h 92 % 0 mm
07:42 -18.3 °C -18.9 °C 34496.6 hPa Calm     92 % 0 mm
07:49 -18.4 °C -19 °C 34496.6 hPa Calm     92 % 0 mm
07:55 -18.3 °C -18.9 °C 34496.6 hPa Calm   2.6 km/h 93 % 0 mm
08:01 -18.2 °C -18.8 °C 34496.6 hPa Calm   2.6 km/h 93 % 0 mm
08:07 -18.2 °C -18.8 °C 34496.6 hPa Calm   2.6 km/h 92 % 0 mm
08:13 -18.2 °C -18.8 °C 34510.1 hPa Calm   2.6 km/h 92 % 0 mm
08:19 -18.2 °C -18.8 °C 34510.1 hPa Calm   2.6 km/h 92 % 0 mm
08:25 -18.2 °C -18.8 °C 34510.1 hPa Calm   2.6 km/h 92 % 0 mm
08:31 -18.2 °C -18.8 °C 34510.1 hPa West 2.3 km/h 2.6 km/h 92 % 0 mm
08:37 -18.3 °C -18.9 °C 34520.3 hPa Calm   2.6 km/h 92 % 0 mm
08:43 -18.3 °C -18.9 °C 34520.3 hPa Calm   2.6 km/h 92 % 0 mm
08:49 -18.2 °C -18.7 °C 34520.3 hPa Calm   2.6 km/h 93 % 0 mm
08:55 -18.1 °C -18.7 °C 34520.3 hPa Calm   2.6 km/h 92 % 0 mm
09:01 -18 °C -18.6 °C 34520.3 hPa West 2.3 km/h 2.6 km/h 92 % 0 mm
09:07 -17.9 °C -18.6 °C 34520.3 hPa Calm   2.6 km/h 91 % 0 mm
09:13 -17.8 °C -18.6 °C 34520.3 hPa West 2.3 km/h 5.1 km/h 91 % 0 mm
09:19 -17.7 °C -18.4 °C 34533.8 hPa Calm   2.6 km/h 90 % 0 mm
09:25 -17.6 °C -18.4 °C 34533.8 hPa Calm   7.7 km/h 90 % 0 mm
09:31 -17.5 °C -18.4 °C 34533.8 hPa NW 2.3 km/h 7.7 km/h 89 % 0 mm
09:37 -17.4 °C -18.3 °C 34533.8 hPa WSW 7.6 km/h 7.7 km/h 89 % 0 mm
09:43 -17.4 °C -18.4 °C 34533.8 hPa Calm   10.3 km/h 88 % 0 mm
09:49 -17.3 °C -18.3 °C 34544 hPa WNW 7.6 km/h 7.7 km/h 88 % 0 mm
09:55 -17.2 °C -18.2 °C 34544 hPa WNW 2.3 km/h 12.9 km/h 87 % 0 mm
10:01 -17.1 °C -18.3 °C 34544 hPa WNW 7.6 km/h 15.6 km/h 86 % 0 mm
10:07 -17 °C -18.2 °C 34544 hPa WNW 10.3 km/h 10.3 km/h 86 % 0 mm
10:13 -16.9 °C -18.1 °C 34544 hPa WNW 7.6 km/h 10.3 km/h 86 % 0 mm
10:19 -16.8 °C -18.1 °C 34544 hPa WNW 5.1 km/h 7.7 km/h 85 % 0 mm
10:25 -16.8 °C -18.1 °C 34544 hPa NW 15.6 km/h 15.6 km/h 84 % 0 mm
10:32 -16.7 °C -18.1 °C 34544 hPa WNW 5.1 km/h 12.9 km/h 83 % 0 mm
10:38 -16.6 °C -18.2 °C 34554.1 hPa WNW 12.7 km/h 18.2 km/h 82 % 0 mm
10:44 -16.6 °C -18 °C 34554.1 hPa NNW 5.1 km/h 12.9 km/h 83 % 0 mm
10:50 -16.4 °C -18 °C 34554.1 hPa NW 2.3 km/h 12.9 km/h 82 % 0 mm
10:56 -16.4 °C -17.9 °C 34554.1 hPa WNW 5.1 km/h 15.6 km/h 82 % 0 mm
11:02 -16.3 °C -17.9 °C 34554.1 hPa NW 7.6 km/h 12.9 km/h 81 % 0 mm
11:08 -16.2 °C -17.8 °C 34554.1 hPa WNW 15.6 km/h 23.3 km/h 81 % 0 mm
11:14 -16.2 °C -17.9 °C 34554.1 hPa NW 10.3 km/h 18.2 km/h 80 % 0 mm
11:20 -16.2 °C -18 °C 34554.1 hPa WNW 5.1 km/h 15.6 km/h 79 % 0 mm
11:26 -16.1 °C -17.9 °C 34554.1 hPa NW 10.3 km/h 12.9 km/h 79 % 0 mm
11:32 -15.9 °C -17.8 °C 34554.1 hPa WNW 7.6 km/h 12.9 km/h 79 % 0 mm
11:38 -15.9 °C -17.7 °C 34554.1 hPa NW 7.6 km/h 15.6 km/h 79 % 0 mm
11:44 -15.8 °C -17.7 °C 34567.7 hPa Calm   15.6 km/h 78 % 0 mm
11:50 -15.8 °C -17.8 °C 34567.7 hPa WNW 5.1 km/h 10.3 km/h 77 % 0 mm
11:56 -15.7 °C -17.6 °C 34567.7 hPa Calm   7.7 km/h 78 % 0 mm
12:02 -15.7 °C -17.8 °C 34567.7 hPa WNW 5.1 km/h 10.3 km/h 76 % 0 mm
12:08 -15.7 °C -17.9 °C 34567.7 hPa West 5.1 km/h 10.3 km/h 75 % 0 mm
12:14 -15.7 °C -17.8 °C 34567.7 hPa NW 5.1 km/h 12.9 km/h 76 % 0 mm
12:20 -15.5 °C -17.9 °C 34554.1 hPa NNE 10.3 km/h 12.9 km/h 73 % 0 mm
12:26 -15.4 °C -17.9 °C 34554.1 hPa WNW 10.3 km/h 12.9 km/h 73 % 0 mm
12:32 -15.4 °C -17.7 °C 34554.1 hPa WNW 5.1 km/h 7.7 km/h 74 % 0 mm
12:38 -15.3 °C -18.3 °C 34554.1 hPa WNW 12.7 km/h 18.2 km/h 68 % 0 mm
12:44 -15.4 °C -18.3 °C 34554.1 hPa North 10.3 km/h 10.3 km/h 69 % 0 mm
12:50 -15.4 °C -18.3 °C 34554.1 hPa WNW 2.3 km/h 7.7 km/h 69 % 0 mm
12:56 -15.2 °C -18.1 °C 34554.1 hPa NNE 7.6 km/h 18.2 km/h 69 % 0 mm
13:02 -15.4 °C -19.1 °C 34554.1 hPa WNW 10.3 km/h 18.2 km/h 62 % 0 mm
13:08 -15.4 °C -18.7 °C 34554.1 hPa Calm   12.9 km/h 66 % 0 mm
13:14 -15.2 °C -18.7 °C 34554.1 hPa WNW 5.1 km/h 10.3 km/h 64 % 0 mm
13:20 -15.2 °C -18.7 °C 34554.1 hPa WNW 12.7 km/h 12.9 km/h 64 % 0 mm
13:26 -15.4 °C -18.5 °C 34554.1 hPa Calm   10.3 km/h 67 % 0 mm
13:32 -15.4 °C -18.6 °C 34554.1 hPa NNW 5.1 km/h 7.7 km/h 66 % 0 mm
13:38 -15.2 °C -18.3 °C 34554.1 hPa NNW 7.6 km/h 7.7 km/h 67 % 0 mm
13:44 -15.3 °C -18.8 °C 34554.1 hPa West 2.3 km/h 18.2 km/h 64 % 0 mm
13:50 -15.4 °C -18.7 °C 34554.1 hPa NNW 15.6 km/h 15.6 km/h 65 % 0 mm
13:56 -15.4 °C -19 °C 34544 hPa WNW 5.1 km/h 23.3 km/h 63 % 0 mm
14:02 -15.4 °C -18.8 °C 34544 hPa WNW 17.9 km/h 18.2 km/h 65 % 0 mm
14:08 -15.3 °C -18.7 °C 34544 hPa NW 10.3 km/h 10.3 km/h 65 % 0 mm
14:14 -15.3 °C -18.8 °C 34544 hPa NNW 2.3 km/h 5.1 km/h 64 % 0 mm
14:20 -15.4 °C -18.8 °C 34544 hPa NE 5.1 km/h 12.9 km/h 64 % 0 mm
14:26 -15.3 °C -18.9 °C 34533.8 hPa West 7.6 km/h 10.3 km/h 63 % 0 mm
14:32 -15.3 °C -18.9 °C 34533.8 hPa West 2.3 km/h 12.9 km/h 63 % 0 mm
14:38 -15.2 °C -18.6 °C 34533.8 hPa North 5.1 km/h 7.7 km/h 65 % 0 mm
14:44 -15.1 °C -18.5 °C 34533.8 hPa WNW 5.1 km/h 10.3 km/h 64 % 0 mm
14:50 -15.1 °C -18.8 °C 34533.8 hPa Calm   7.7 km/h 62 % 0 mm
14:56 -15.2 °C -18.6 °C 34533.8 hPa WNW 2.3 km/h 10.3 km/h 64 % 0 mm
15:02 -15.3 °C -19.1 °C 34533.8 hPa NNW 5.1 km/h 12.9 km/h 61 % 0 mm
15:08 -15.2 °C -19.1 °C 34533.8 hPa Calm   5.1 km/h 61 % 0 mm
15:14 -15.2 °C -19 °C 34533.8 hPa ENE 2.3 km/h 7.7 km/h 61 % 0 mm
15:20 -15.2 °C -19 °C 34533.8 hPa Calm   7.7 km/h 61 % 0 mm
15:26 -15 °C -18.6 °C 34533.8 hPa Calm   5.1 km/h 63 % 0 mm
15:32 -14.9 °C -18.7 °C 34533.8 hPa North 12.7 km/h 12.9 km/h 61 % 0 mm
15:38 -15.1 °C -18.6 °C 34533.8 hPa NNW 7.6 km/h 15.6 km/h 64 % 0 mm
15:44 -15.1 °C -18.6 °C 34533.8 hPa North 7.6 km/h 10.3 km/h 64 % 0 mm
15:50 -15.1 °C -18.7 °C 34533.8 hPa NNE 5.1 km/h 10.3 km/h 63 % 0 mm
15:56 -15.2 °C -18.5 °C 34533.8 hPa NNW 5.1 km/h 7.7 km/h 65 % 0 mm
16:02 -15.3 °C -18.5 °C 34533.8 hPa Calm   2.6 km/h 66 % 0 mm
16:08 -15.2 °C -18.4 °C 34533.8 hPa NNW 5.1 km/h 5.1 km/h 66 % 0 mm
16:14 -15.1 °C -18.5 °C 34533.8 hPa WNW 2.3 km/h 12.9 km/h 64 % 0 mm
16:20 -14.9 °C -18.7 °C 34520.3 hPa NW 7.6 km/h 10.3 km/h 62 % 0 mm
16:26 -14.9 °C -19.1 °C 34520.3 hPa WNW 5.1 km/h 10.3 km/h 59 % 0 mm
16:32 -14.9 °C -19 °C 34520.3 hPa WNW 2.3 km/h 7.7 km/h 59 % 0 mm
16:38 -15.1 °C -18.7 °C 34520.3 hPa WNW 2.3 km/h 7.7 km/h 63 % 0 mm
16:44 -15.2 °C -18.9 °C 34520.3 hPa Calm   2.6 km/h 62 % 0 mm
16:50 -15.3 °C -18.7 °C 34520.3 hPa WNW 2.3 km/h 5.1 km/h 64 % 0 mm
16:56 -15.2 °C -18.7 °C 34520.3 hPa Calm   2.6 km/h 64 % 0 mm
17:02 -15.2 °C -18.8 °C 34520.3 hPa Calm   2.6 km/h 63 % 0 mm
17:08 -15.3 °C -18.9 °C 34520.3 hPa Calm   2.6 km/h 63 % 0 mm
17:14 -15.3 °C -18.9 °C 34520.3 hPa Calm   2.6 km/h 63 % 0 mm
17:20 -15.4 °C -18.6 °C 34520.3 hPa Calm     66 % 0 mm
17:27 -15.6 °C -18.8 °C 34520.3 hPa Calm     66 % 0 mm
17:33 -15.7 °C -19.1 °C 34520.3 hPa Calm   2.6 km/h 64 % 0 mm
17:39 -15.7 °C -19.2 °C 34520.3 hPa Calm   2.6 km/h 64 % 0 mm
17:45 -15.9 °C -18.9 °C 34520.3 hPa Calm     67 % 0 mm
17:51 -15.9 °C -19.1 °C 34520.3 hPa Calm     66 % 0 mm
17:57 -16.1 °C -18.8 °C 34520.3 hPa Calm     70 % 0 mm
18:03 -16.2 °C -19.2 °C 34520.3 hPa Calm     68 % 0 mm
18:09 -16.2 °C -19.3 °C 34520.3 hPa Calm     67 % 0 mm
18:15 -16.2 °C -19.3 °C 34533.8 hPa Calm     66 % 0 mm
18:21 -16.3 °C -19.3 °C 34533.8 hPa Calm     67 % 0 mm
18:27 -16.4 °C -19.3 °C 34533.8 hPa Calm     69 % 0 mm
18:33 -16.6 °C -19.2 °C 34533.8 hPa Calm     71 % 0 mm
18:39 -16.8 °C -19.3 °C 34533.8 hPa Calm     72 % 0 mm
18:45 -17 °C -19.3 °C 34533.8 hPa SW 2.3 km/h 2.6 km/h 74 % 0 mm
18:51 -17.1 °C -19.3 °C 34533.8 hPa WNW 2.3 km/h 5.1 km/h 75 % 0 mm
18:57 -17.1 °C -19.2 °C 34533.8 hPa WNW 2.3 km/h 5.1 km/h 76 % 0 mm
19:03 -17.1 °C -19.2 °C 34533.8 hPa Calm   2.6 km/h 76 % 0 mm
19:09 -17.3 °C -19.3 °C 34533.8 hPa Calm   2.6 km/h 77 % 0 mm
19:15 -17.3 °C -19.2 °C 34533.8 hPa Calm   2.6 km/h 78 % 0 mm
19:21 -17.2 °C -19.1 °C 34533.8 hPa Calm     78 % 0 mm
19:28 -17.3 °C -19.2 °C 34533.8 hPa Calm     78 % 0 mm
19:34 -17.4 °C -19.2 °C 34533.8 hPa Calm     79 % 0 mm
19:40 -17.3 °C -19.1 °C 34533.8 hPa Calm   2.6 km/h 80 % 0 mm
19:46 -17.3 °C -19 °C 34544 hPa Calm     80 % 0 mm
19:52 -17.4 °C -19.2 °C 34533.8 hPa Calm     79 % 0 mm
19:58 -17.6 °C -19.2 °C 34533.8 hPa Calm     80 % 0 mm
20:04 -17.5 °C -19.1 °C 34533.8 hPa Calm     81 % 0 mm
20:10 -17.4 °C -19.1 °C 34533.8 hPa Calm     81 % 0 mm
20:16 -17.6 °C -19.2 °C 34533.8 hPa Calm     81 % 0 mm
20:22 -17.6 °C -19.1 °C 34533.8 hPa Calm     82 % 0 mm
20:28 -17.7 °C -19.2 °C 34533.8 hPa Calm     82 % 0 mm
20:34 -17.9 °C -19.2 °C 34533.8 hPa Calm     84 % 0 mm
20:40 -18.1 °C -19.2 °C 34533.8 hPa Calm     86 % 0 mm
20:46 -18.2 °C -19.3 °C 34533.8 hPa Calm     86 % 0 mm
20:52 -18.3 °C -19.4 °C 34533.8 hPa Calm     86 % 0 mm
20:58 -18.5 °C -19.4 °C 34533.8 hPa Calm     88 % 0 mm
21:04 -18.5 °C -19.4 °C 34533.8 hPa Calm     89 % 0 mm
21:10 -18.6 °C -19.4 °C 34533.8 hPa Calm     89 % 0 mm
21:16 -18.7 °C -19.4 °C 34533.8 hPa Calm     90 % 0 mm
21:22 -18.7 °C -19.4 °C 34533.8 hPa Calm     90 % 0 mm
21:28 -18.7 °C -19.4 °C 34533.8 hPa Calm     91 % 0 mm
21:34 -18.7 °C -19.4 °C 34533.8 hPa Calm     91 % 0 mm
21:40 -18.6 °C -19.3 °C 34533.8 hPa Calm     91 % 0 mm
21:46 -18.5 °C -19.2 °C 34533.8 hPa Calm     91 % 0 mm
21:52 -18.5 °C -19.2 °C 34533.8 hPa Calm     91 % 0 mm
21:59 -18.5 °C -19.2 °C 34533.8 hPa Calm     91 % 0 mm
22:05 -18.5 °C -19.2 °C 34533.8 hPa Calm     91 % 0 mm
22:11 -18.6 °C -19.3 °C 34533.8 hPa Calm     91 % 0 mm
22:17 -18.6 °C -19.3 °C 34533.8 hPa Calm     91 % 0 mm
22:23 -18.7 °C -19.4 °C 34533.8 hPa Calm     91 % 0 mm
22:29 -18.6 °C -19.3 °C 34533.8 hPa Calm     91 % 0 mm
22:35 -18.6 °C -19.3 °C 34520.3 hPa Calm     90 % 0 mm
22:41 -18.7 °C -19.4 °C 34520.3 hPa Calm     91 % 0 mm
22:47 -18.8 °C -19.5 °C 34520.3 hPa Calm     91 % 0 mm
22:53 -18.8 °C -19.4 °C 34520.3 hPa Calm     92 % 0 mm
22:59 -18.8 °C -19.4 °C 34520.3 hPa Calm     92 % 0 mm
23:05 -18.9 °C -19.5 °C 34520.3 hPa Calm     92 % 0 mm
23:11 -18.9 °C -19.6 °C 34520.3 hPa Calm     92 % 0 mm
23:17 -18.9 °C -19.5 °C 34520.3 hPa Calm   2.6 km/h 92 % 0 mm
23:23 -18.9 °C -19.5 °C 34520.3 hPa Calm     92 % 0 mm
23:29 -18.9 °C -19.5 °C 34520.3 hPa Calm     92 % 0 mm
23:35 -18.9 °C -19.5 °C 34510.1 hPa Calm     92 % 0 mm
23:41 -18.9 °C -19.6 °C 34510.1 hPa Calm     92 % 0 mm
23:47 -18.9 °C -19.6 °C 34510.1 hPa Calm     92 % 0 mm
23:53 -18.9 °C -19.6 °C 34510.1 hPa Calm     92 % 0 mm
23:59 -19 °C -19.6 °C 34510.1 hPa Calm     92 % 0 mm
Meteo18
Compliments of Weather Underground - 4 mb

Script developed by  Jim McMurry - jmcmurry@mwt.net Adapted for the template by  Wim van der Kuil - Leuven-Template.eu

You find our weather info also at:

European Weather Network

Weather Underground

Equipment we use:

Weather-station
Davis Vue

Weather-program
Meteobridge

Weather-server
Raspberry PI 2 B+

Provider
1 and 1

Davis Vue

Meteobridge

Raspberry PI 2 B+

1 and 1